Location: Cossonay
(46.5833°N, 6.4167°E)
Time: 22:06:17
(UTC+00:00)

CBERS-1 - Pass Details

Date: 03 October 2020
Orbit: 770 x 777 km, 98.6° (Epoch: 22 October)

Event Time Altitude Azimuth Distance (km) Brightness Sun altitude
Rises 02:22:04 0° 11° (N) 3,259 7.8 -32.6°
Reaches altitude 10° 02:24:25 10° 8° (N) 2,329 6.9 -32.3°
Enters shadow 02:26:57 29° 358° (N) 1,388 5.5 -31.9°
